• In Moldova, Republic
  • List of Countries
  • For 7 days
  • Water Temperature
  • Satellite Maps
  • Weather Map
  • Weather Widgets
  • user-avatar
    Login

    Hourly Weather Igls

    Today, 24 January, Wednesday

    Time Temperature Precipitation Wind Pressure Humidity
    00:00 0°C° 0 mm 1 mps 690 mmHg 66%
    01:00 -2°C° 0 mm 2 mps 690 mmHg 64%
    02:00 -2°C° 0 mm 2 mps 690 mmHg 63%
    03:00 -2°C° 0 mm 2 mps 690 mmHg 63%
    04:00 -2°C° 0 mm 2 mps 690 mmHg 62%
    05:00 -2°C° 0 mm 2 mps 690 mmHg 61%
    06:00 -2°C° 0 mm 2 mps 690 mmHg 60%
    07:00 -1°C° 0 mm 2 mps 690 mmHg 60%
    08:00 +1°C° 0 mm 2 mps 690 mmHg 63%
    09:00 +4°C° 0 mm 1 mps 690 mmHg 66%
    10:00 +6°C° 0 mm 1 mps 691 mmHg 69%
    11:00 +5°C° 0 mm 2 mps 690 mmHg 76%
    12:00 +6°C° 0 mm 2 mps 690 mmHg 83%
    13:00 +7°C° 0 mm 2 mps 689 mmHg 90%
    14:00 +7°C° 0 mm 2 mps 689 mmHg 88%
    15:00 +6°C° 0 mm 2 mps 689 mmHg 86%
    16:00 +6°C° 0 mm 2 mps 689 mmHg 84%
    17:00 +4°C° 0 mm 2 mps 688 mmHg 80%
    18:00 +3°C° 0 mm 2 mps 688 mmHg 77%
    19:00 +1°C° 0 mm 3 mps 688 mmHg 73%
    20:00 +1°C° 0 mm 3 mps 688 mmHg 72%
    21:00 0°C° 0 mm 3 mps 688 mmHg 71%
    22:00 0°C° 0 mm 3 mps 688 mmHg 70%
    23:00 0°C° 0 mm 3 mps 688 mmHg 70%

    Tomorrow, 25 January, Thursday

    Time Temperature Precipitation Wind Pressure Humidity
    00:00 +1°C° 0 mm 2 mps 688 mmHg 69%
    01:00 +1°C° 0 mm 2 mps 688 mmHg 69%
    02:00 +1°C° 0 mm 2 mps 687 mmHg 69%
    03:00 +1°C° 0 mm 2 mps 687 mmHg 69%
    04:00 +1°C° 0 mm 2 mps 687 mmHg 70%
    05:00 +1°C° 0 mm 2 mps 687 mmHg 70%
    06:00 +1°C° 0 mm 2 mps 686 mmHg 71%
    07:00 +1°C° 0 mm 2 mps 686 mmHg 72%
    08:00 +2°C° 0 mm 2 mps 686 mmHg 75%
    09:00 +2°C° 0 mm 3 mps 686 mmHg 77%
    10:00 +3°C° 0 mm 3 mps 686 mmHg 80%
    11:00 +4°C° 0 mm 3 mps 685 mmHg 83%
    12:00 +4°C° 0 mm 3 mps 685 mmHg 87%
    13:00 +5°C° 0 mm 3 mps 684 mmHg 90%
    14:00 +5°C° 0 mm 3 mps 684 mmHg 91%
    15:00 +4°C° 0 mm 3 mps 683 mmHg 92%
    16:00 +4°C° 0 mm 3 mps 683 mmHg 93%
    17:00 +3°C° 0 mm 3 mps 683 mmHg 92%
    18:00 +3°C° 0 mm 3 mps 683 mmHg 91%
    19:00 +2°C° 0 mm 3 mps 683 mmHg 90%
    20:00 +2°C° 0 mm 3 mps 683 mmHg 90%
    21:00 +2°C° 0 mm 3 mps 683 mmHg 90%
    22:00 +2°C° 0 mm 3 mps 682 mmHg 89%
    23:00 +2°C° 0 mm 3 mps 682 mmHg 89%

    Day after tomorrow, 26 January, Friday

    Time Temperature Precipitation Wind Pressure Humidity
    00:00 +2°C° 0 mm 3 mps 682 mmHg 89%
    01:00 +2°C° 0 mm 3 mps 681 mmHg 89%
    02:00 +2°C° 0 mm 3 mps 681 mmHg 89%
    03:00 +2°C° 0 mm 3 mps 681 mmHg 89%
    04:00 +2°C° 0 mm 3 mps 680 mmHg 89%
    05:00 +2°C° 0 mm 3 mps 680 mmHg 89%
    06:00 +2°C° 0 mm 3 mps 680 mmHg 89%
    07:00 +2°C° 0 mm 3 mps 680 mmHg 89%
    08:00 +2°C° 0.1 mm 3 mps 681 mmHg 91%
    09:00 +4°C° 0.1 mm 2 mps 681 mmHg 92%
    10:00 +4°C° 0.1 mm 2 mps 681 mmHg 93%
    11:00 +4°C° 0.1 mm 2 mps 681 mmHg 94%
    12:00 +5°C° 0.1 mm 2 mps 681 mmHg 95%
    13:00 +5°C° 0.1 mm 2 mps 681 mmHg 96%
    14:00 +5°C° 0.3 mm 2 mps 681 mmHg 96%
    15:00 +4°C° 0.3 mm 2 mps 682 mmHg 96%
    16:00 +4°C° 0.3 mm 2 mps 682 mmHg 96%
    17:00 +4°C° 1 mm 2 mps 682 mmHg 96%
    18:00 +4°C° 1 mm 1 mps 682 mmHg 97%
    19:00 +4°C° 1 mm 1 mps 682 mmHg 97%
    20:00 +3°C° 1.3 mm 1 mps 683 mmHg 97%
    21:00 +3°C° 1.3 mm 1 mps 683 mmHg 97%
    22:00 +3°C° 1.3 mm 1 mps 683 mmHg 97%
    23:00 +3°C° 1.5 mm 1 mps 683 mmHg 97%

    27 January, Saturday

    Time Temperature Precipitation Wind Pressure Humidity
    00:00 +3°C° 1.5 mm 1 mps 684 mmHg 97%
    01:00 +3°C° 1.5 mm 1 mps 684 mmHg 97%
    02:00 +3°C° 1.6 mm 1 mps 684 mmHg 97%
    03:00 +2°C° 1.6 mm 1 mps 684 mmHg 97%
    04:00 +2°C° 1.6 mm 1 mps 684 mmHg 97%
    05:00 +2°C° 1.2 mm 1 mps 685 mmHg 97%
    06:00 +2°C° 1.2 mm 1 mps 685 mmHg 97%
    07:00 +2°C° 1.2 mm 1 mps 685 mmHg 97%
    08:00 +2°C° 1.2 mm 1 mps 686 mmHg 97%
    09:00 +3°C° 1.2 mm 1 mps 686 mmHg 96%
    10:00 +3°C° 1.2 mm 1 mps 687 mmHg 96%
    11:00 +3°C° 0.6 mm 1 mps 687 mmHg 96%
    12:00 +4°C° 0.6 mm 1 mps 688 mmHg 95%
    13:00 +4°C° 0.6 mm 1 mps 688 mmHg 95%
    14:00 +4°C° 0.2 mm 1 mps 688 mmHg 95%
    15:00 +5°C° 0.2 mm 1 mps 689 mmHg 95%
    16:00 +5°C° 0.2 mm 1 mps 689 mmHg 95%
    17:00 +4°C° 0.1 mm 1 mps 690 mmHg 95%
    18:00 +3°C° 0.1 mm 1 mps 690 mmHg 95%
    19:00 +2°C° 0.1 mm 1 mps 691 mmHg 95%
    20:00 +2°C° 0 mm 1 mps 691 mmHg 94%
    21:00 +1°C° 0 mm 1 mps 691 mmHg 93%
    22:00 +1°C° 0 mm 1 mps 692 mmHg 93%
    23:00 +1°C° 0 mm 1 mps 692 mmHg 90%

    28 January, Sunday

    Time Temperature Precipitation Wind Pressure Humidity
    00:00 0°C° 0 mm 1 mps 692 mmHg 88%
    01:00 0°C° 0 mm 1 mps 693 mmHg 86%
    02:00 0°C° 0 mm 1 mps 693 mmHg 85%
    03:00 0°C° 0 mm 1 mps 693 mmHg 85%
    04:00 0°C° 0 mm 1 mps 693 mmHg 84%
    05:00 0°C° 0 mm 1 mps 693 mmHg 83%
    06:00 0°C° 0 mm 1 mps 694 mmHg 82%
    07:00 0°C° 0 mm 1 mps 694 mmHg 81%
    08:00 +1°C° 0 mm 1 mps 694 mmHg 81%
    09:00 +3°C° 0 mm 1 mps 695 mmHg 81%
    10:00 +5°C° 0 mm 1 mps 696 mmHg 81%
    11:00 +5°C° 0 mm 1 mps 696 mmHg 86%
    12:00 +5°C° 0 mm 0 mps 695 mmHg 90%
    13:00 +6°C° 0 mm 0 mps 695 mmHg 95%
    14:00 +5°C° 0 mm 0 mps 695 mmHg 95%
    15:00 +5°C° 0 mm 0 mps 695 mmHg 95%
    16:00 +5°C° 0 mm 0 mps 695 mmHg 95%
    17:00 +3°C° 0 mm 0 mps 695 mmHg 92%
    18:00 +3°C° 0 mm 1 mps 695 mmHg 89%
    19:00 +2°C° 0 mm 1 mps 695 mmHg 86%
    20:00 +2°C° 0 mm 1 mps 695 mmHg 83%
    21:00 +1°C° 0 mm 1 mps 696 mmHg 79%
    22:00 +1°C° 0 mm 1 mps 696 mmHg 76%
    23:00 +1°C° 0 mm 1 mps 696 mmHg 74%

    29 January, Monday

    Time Temperature Precipitation Wind Pressure Humidity
    00:00 +1°C° 0 mm 1 mps 696 mmHg 72%
    01:00 +1°C° 0 mm 1 mps 695 mmHg 70%
    02:00 +1°C° 0 mm 1 mps 695 mmHg 68%
    03:00 +1°C° 0 mm 1 mps 695 mmHg 67%
    04:00 +1°C° 0 mm 1 mps 695 mmHg 66%
    05:00 +1°C° 0 mm 1 mps 695 mmHg 65%
    06:00 0°C° 0 mm 1 mps 695 mmHg 65%
    07:00 0°C° 0 mm 1 mps 695 mmHg 64%
    08:00 +2°C° 0 mm 1 mps 695 mmHg 67%
    09:00 +4°C° 0 mm 1 mps 695 mmHg 70%
    10:00 +5°C° 0 mm 1 mps 695 mmHg 72%
    11:00 +6°C° 0 mm 1 mps 695 mmHg 78%
    12:00 +7°C° 0 mm 1 mps 695 mmHg 84%
    13:00 +6°C° 0 mm 0 mps 694 mmHg 90%
    14:00 +6°C° 0 mm 0 mps 694 mmHg 90%
    15:00 +5°C° 0 mm 0 mps 694 mmHg 89%
    16:00 +5°C° 0 mm 0 mps 693 mmHg 88%
    17:00 +4°C° 0 mm 1 mps 693 mmHg 85%
    18:00 +3°C° 0 mm 1 mps 693 mmHg 82%
    19:00 +1°C° 0 mm 1 mps 693 mmHg 78%
    20:00 +1°C° 0 mm 1 mps 693 mmHg 75%
    21:00 +1°C° 0 mm 1 mps 693 mmHg 72%
    22:00 0°C° 0 mm 1 mps 693 mmHg 70%
    23:00 0°C° 0 mm 1 mps 693 mmHg 67%
    Show more